Location: Cosy Dell
(34.2789°N, 117.4537°W)
Time: 00:15:57
(UTC+00:00)

SeaSat 1 - Pass Details

Date: 14 July 2020
Orbit: 744 x 748 km, 108.0° (Epoch: 12 August)

Event Time Altitude Azimuth Distance (km) Brightness Sun altitude
Rises 08:58:20 0° 33° (NNE) 3,194 6.7 -32.2°
Reaches altitude 10° 09:00:44 10° 40° (NE) 2,267 5.7 -32.0°
Enters shadow 09:03:53 32° 70° (ENE) 1,256 3.8 -31.8°
